NOAA 16 DEB, 41077

Orbit data source: Space-Track

NOAA 16 DEB, 41077 is space debris in SSO originally from a launch on Thu, 21 Sep 2000 UTC launched from the Air Force Western Test Range (AFWTR). Debris objects in space refer to the collection of defunct objects orbiting the Earth. Examples of debris include non-operational satellites, rocket bodies, and fragments generated from explosions, collisions, or faulty payload assembly.

Loading next visibility...
Identifier
41077, 2000-055AL
Orbit
SSO
Last TLE update
2 days ago
Origin
Manufacturer
Unknown
Mission
Spacecraft
Bus & Motor
Unknown
Mass
Unknown
Launch date (UTC)
2000-09-21 (25 years ago)
Launch vehicle
Unknown
Launch site
Air Force Western Test Range (AFWTR)
Object type
Payload
Rocket body
Debris
Shape & HBR
Unknown
Radar Cross Section
Small (<0.1 m²)

Expand to show TLE details & history

TLE from 2 days ago
0 NOAA 16 DEB
1 41077U 00055AL  25119.03502389  .00000627  00000-0  48588-3 0  9998
2 41077  98.8271 144.7599 0112500 244.6092 114.3389 13.93405891478552
Epoch: 2025-04-29T00:50Z
Definitive object data (Epoch: 2025-04-29T00:50:26.064Z)
Latitude
-0°
Longitude
-85.08918°
Altitude
954.184 km
Speed
7.357 km/s
True Right ascension
09h 39m 02s
True Declination
0° 00' 00"
Sunlit
Object was in daylight at TLE epoch
Visualization TLE readout
Latitude
35.92341°
Longitude
103.14661°
Altitude
928.819 km
Speed
7.387 km/s
Apparent Right ascension
20h 17m 51s
Apparent Declination
1° 12' 59"
Sunlit
Object is in daylight
Visualization observer readout
Local Sidereal Time
05:56:44
Azimuth
313.082° NW
Elevation
-37.761°
Doppler factor
1
Orbital elements
Apogee altitude
995.954 km
Perigee altitude
831.883 km
Semi-major axis
7,292.056 km
Eccentricity
0.01125
Inclination
98.8271°
RAAN
144.7599°
Arg. of periapsis
244.6092°
True anomaly
115.50663°
Mean anomaly
114.3389°
Eccentric anomaly
114.92345°
Mean motion
3.48553 °/min
BSTAR
0.00048588
Orbital period
103.28 mins
Loading maneuver chart data...
Loading SW <> Apogee altitude chart data...
Loading historical data...
Loading historical data...
Loading historical data...
Loading historical data...
Loading historical data...
Loading historical data...
Loading historical data...

NOAA 16 DEB Visibility forecast

Observer location: undefined°, undefined°

Span
Click to sort rows by Start time (UTC) header in descending order
Start Az.
Max El. time (UTC)
Max El. Az.
Max El.
End time (UTC)
End Az.
11 mins2025-05-01 01:12:46.592Z147.796° SSE2025-05-01 01:17:46.592Z73.831° E41.117°2025-05-01 01:23:46.592Z353.938° N
6 mins2025-05-01 02:57:46.592Z238.453° WSW2025-05-01 02:59:46.592Z262.281° W19.436°2025-05-01 03:03:46.592Z307.877° NW
9 mins2025-05-01 13:46:46.592Z40.099° NE2025-05-01 13:50:46.592Z98.572° ESE29.704°2025-05-01 13:55:46.592Z160.682° S
8 mins2025-05-01 15:28:46.592Z347.728° N2025-05-01 15:32:46.592Z290.498° WNW29.093°2025-05-01 15:36:46.592Z236.669° WSW
|